Location: Mexico
(19.4000°N, 99.1500°W)
Time: 21:52:00
(UTC-06:00)

ISS - Pass Details

Date: 19 June 2017
Orbit: 401 x 408 km, 51.6° (Epoch: 29 June)

Event Time Altitude Azimuth Distance (km) Brightness Sun altitude
Rises 20:00:19 0° 298° (WNW) 2,322 2.4 -9.9°
Reaches altitude 10° 20:02:57 10° 276° (W) 1,459 0.2 -10.4°
Maximum altitude 20:05:03 16° 236° (SW) 1,149 -1.2 -10.8°
Drops below altitude 10° 20:07:09 10° 195° (SSW) 1,455 -1.2 -11.3°
Enters shadow 20:08:49 - 179° (S) 1,964 -0.7 -11.6°
